Location: Banios
(43.0451°N, 0.2335°E)
Time: 08:33:14
(UTC+00:00)

A-11 Canister half - Pass Details

Date: 18 May 2021
Orbit: 1527 x 1681 km, 47.3° (Epoch: 22 June)

Event Time Altitude Azimuth Distance (km) Brightness Sun altitude
Rises 13:31:53 0° 295° (WNW) 4,815 11.8 59.1°
Reaches altitude 10° 13:34:59 10° 293° (WNW) 3,847 11.4 58.7°
Maximum altitude 13:44:40 64° 215° (SW) 1,797 11.7 57.3°
Drops below altitude 10° 13:54:35 10° 137° (SE) 3,929 11.2 55.8°
Sets 13:57:48 0° 134° (SE) 4,921 11.6 55.3°
